Regional Weather Roundup
Issued by NWS

Home | Current Version | Previous Version | Text Only | Print | Product List | Glossary On
Versions: 1 2 3 4 5 6 7 8 9 10 11 12 13 14 15 16 17 18 19 20 21 22 23 24 25 26 27 28 29 30 31 32 33 34 35 36 37 38 39 40 41 42 43 44 45 46 47 48 49 50
000
ASUS45 KTFX 220819
RWRMT
MONTANA HOURLY WEATHER ROUNDUP
NATIONAL WEATHER SERVICE GREAT FALLS MT
219 AM MDT WED OCT 22 2014

NOTE: "FAIR" INDICATES FEW OR NO CLOUDS BELOW 12000 FEET WITH NO
SIGNIFICANT WEATHER AND/OR OBSTRUCTIONS TO VISIBILITY.

* THESE STATIONS ARE NOT UNDER NWS QUALITY CONTROL. THEY DO NOT
   REPORT WEATHER SUCH AS PRECIPITATION OR FOG.

MTZ001>007-043-220900-
WEST OF THE DIVIDE
CITY           SKY/WX    TMP DP  RH WIND       PRES   REMARKS
KALISPELL      CLOUDY    45  41  86 W3        30.00R
MISSOULA       CLOUDY    45  41  86 SE6       30.06S
BUTTE          PTCLDY    37  30  76 CALM      30.07R
MULLAN PASS    FOG       34  34 100 S6        30.02R VSB 1 1/4 WCI  29
* ESSEX        N/A       42  40  93 N/A        N/A
* LINCOLN      N/A       40  36  86 S4G10      N/A
* POLSON       N/A       40  38  93 SE1        N/A
* RONAN APT    PTCLDY    43  39  86 N/A        N/A
* SEELEY LAKE  N/A       39  38  96 N/A        N/A
* THOMP F APT  CLEAR     31  28  89 N5         N/A   WCI  26
$$

MTZ008-052>055-220900-
SOUTHWEST MONTANA
CITY           SKY/WX    TMP DP  RH WIND       PRES   REMARKS
BOZEMAN        CLOUDY    37  36  96 CALM      30.06R
DILLON         MOCLDY    36  30  79 S7        30.08R WCI  30
W YELLOWSTONE  MOCLDY    32  30  92 SW3       30.11R
* THREE FORKS  PTCLDY    37  18  46 N/A        N/A
* BOULDER HILL N/A       38  27  65 SW7G12     N/A   WCI  33
* MONIDA PASS  N/A       27  27 100 NE1        N/A
* RAYNOLDS PAS N/A       32  20  61 S7         N/A   WCI  25
* WHITEHALL    N/A       42  33  71 W10G19     N/A
* WISE RIVER   N/A       37  30  76 NW3G12     N/A
$$

MTZ009>010-012-014-046-048-049-054-220900-
EAST SLOPES AND CENTRAL MONTANA
CITY           SKY/WX    TMP DP  RH WIND       PRES   REMARKS
CUT BANK       CLOUDY    45  36  71 W17       29.87R
GREAT FALLS    PTCLDY    43  36  76 SW14      29.92R
HELENA         CLOUDY    48  32  54 SW6       30.01R
MALMSTROM AFB  PTCLDY    45  36  71 SW18      29.93R
* CONRAD       PTCLDY    46  37  71 SW15G21    N/A
* DEARBORN     N/A       48  33  56 S6G11      N/A
* EAST GLACIER N/A       43  31  63 W24G38     N/A
* MONARCH      N/A       38  26  62 SW11       N/A   WCI  31
* PENDROY      N/A       43  30  60 W17G24     N/A
* ROGERS PASS  N/A       38  33  82 SE17G25    N/A   WCI  29
* SAINT MARY   N/A       44  31  60 S9G23      N/A
* SWEET GRASS  N/A       43  34  71 W16G26     N/A
* WHITE SULPH  N/A       40  31  70 W2G9       N/A
$$

MTZ011-013-016-021-035-040-045-047-050-051-220900-
NORTH CENTRAL MONTANA
CITY           SKY/WX    TMP DP  RH WIND       PRES   REMARKS
HAVRE          CLOUDY    46  43  89 SW15      29.82R
LEWISTOWN      CLOUDY    45  36  71 SW17      29.92R
* CHINOOK      CLOUDY    50  43  77 SW16G23   29.80R
* FORT BENTON  MOCLDY    48  37  66 SW7       29.90R
* CHESTER      N/A       45  38  77 SW7G12     N/A
* DENTON       N/A       41  36  82 SW9        N/A
* GEYSER       N/A       41  31  68 SW10       N/A
* JUDITH GAP   N/A       41  33  73 W10G16     N/A
* LOMA         N/A       47  38  71 SW11G16    N/A
$$

MTZ017>020-022>027-061-062-220900-
NORTHEAST MONTANA
CITY           SKY/WX    TMP DP  RH WIND       PRES   REMARKS
GLASGOW        PTCLDY    50  41  71 W16       29.76R
GLENDIVE       MOCLDY    52  46  80 W13       29.81R
JORDAN         CLEAR     50  43  77 W15       29.83R
SIDNEY         MOCLDY    54  46  74 W20G29    29.71R
WOLF POINT     CLOUDY    54  46  74 W14       29.75R
* BEAVER HILL  N/A       52  46  80 W16        N/A
* CIRCLE       N/A       52  45  77 SW6G12     N/A
* LINDSAY DVD  N/A       50  46  86 W19G28     N/A
* NAVAJO       N/A       52  42  69 W12G17     N/A
* SACO         N/A       51  43  74 SW14G24    N/A
$$

MTZ028>042-056>058-220900-
SOUTHCENTRAL AND SOUTHEAST MONTANA
CITY           SKY/WX    TMP DP  RH WIND       PRES   REMARKS
BAKER          PTCLDY    50  45  83 NW14      29.82R
BILLINGS       PTCLDY    48  30  50 W22       29.94S
LIVINGSTON     CLOUDY    45  34  65 W16       30.01R
MILES CITY     LGT RAIN  50  41  71 W14       29.87R
* LAUREL APT   PTCLDY    52  28  40 W17G30     N/A
* ROUNDUP APT  PTCLDY    46  30  54 W16G23     N/A
* ALZADA       N/A       48  40  74 W8         N/A
* HYSHAM       N/A       46  32  58 SW2G8      N/A
* LAME DEER    N/A       44  32  63 W11G20     N/A
* REED POINT   N/A       47  32  56 W14G20     N/A
* ROSCOE HILL  N/A       45  16  31 SW2G8      N/A
$$

REGIONAL REPORTS...DAKOTAS
CITY           SKY/WX    TMP DP  RH WIND       PRES   REMARKS
WILLISTON      LGT RAIN  57  46  67 W26G31    29.65S
DICKINSON      PTCLDY    52  45  77 W13       29.70R
BEACH          N/A       52  48  86 W15G20    29.78R
CROSBY         CLEAR     55  43  64 SW14      29.64R
TIOGA          FAIR      55  48  77 W14G20    29.67R
BISMARCK       PTCLDY    64  48  56 S15       29.68R
GRAND FORKS    PTCLDY    55  41  59 S22G35    29.83F
FARGO          CLEAR     55  41  59 SE26G36   29.89F
BUFFALO SD     PTCLDY    54  39  57 W18       29.74R
RAPID CITY     CLOUDY    63  43  48 N14       29.82R
$$

REGIONAL REPORTS...WYOMING/IDAHO/WASHINGTON
CITY           SKY/WX    TMP DP  RH WIND       PRES   REMARKS
GILLETTE       PTCLDY    48  28  46 NW12      29.94R
SHERIDAN       PTCLDY    46  28  50 NW12      29.95R
CODY           CLEAR    N/A N/A N/A NW5       29.99R
YELLOWSTONE LA PTCLDY    27  25  92 CALM      30.13R
SALMON         PTCLDY   N/A N/A N/A N/A        N/A
MULLAN PASS    FOG       34  34 100 S6        30.02S VSB 1 1/4 WCI  29
SPOKANE        CLEAR     43  37  79 SE9       29.97S
$$

REGIONAL REPORTS...ALBERTA
CITY           SKY/WX    TMP DP  RH WIND       PRES   REMARKS
CALGARY        N/A       50  27  41 W8        29.77R
LETHBRIDGE     MOCLDY    50  32  50 W26G33    29.81R
MEDICINE HAT   PTCLDY    46  45  96 W8        29.77R
EDMONTON       FAIR      36  32  85 S9        29.70F WCI  29
WATERTON GATE  N/A       46  30  54 SW18G30    N/A
CARDSTON       N/A       41  32  70 W8         N/A
MILK RIVER     N/A       43  34  71 W17        N/A
$$

REGIONAL REPORTS...SASKATCHEWAN
CITY           SKY/WX    TMP DP  RH WIND       PRES   REMARKS
SWIFT CURRENT  MOCLDY    46  43  89 W12G17    29.68R
REGINA         MOCLDY    50  43  77 W6        29.59R
VAL MARIE      N/A       48  43  83 W14        N/A
ASSINIBOIA     N/A       48  43  83 W17G23     N/A

$$




USA.gov is the U.S. government's official web portal to all federal, state and local government web resources and services.